TVF4350 LFPO-HELX

Flight info

Callsign TVF4350
Flight time 4h 30m
Altitude 37000
Route OKASI DCT OKEKO DCT MOU DCT MADIV DCT MOKIP DCT TUFTA DCT KOGAS DCT MEDAM DCT NITAM DCT MOGBO DCT ELB DCT LEVDI DCT INKOP DCT ARLOS DCT SALUN N705 BOPIX N710 TAKRI P751 LXR
Aircraft B738/M-SDE2E3FGHIRWXY/LB1

Departure

Time 2026-05-04 05:54
Airport Paris-Orly Airport (LFPO)

Arrival

Time 2026-05-04 10:25
Airport Luxor International Airport (HELX)
Time Latitude Longitude Altitude Speed Heading
2026-05-04 05:48 48.73075 2.35893 297 ft 0 kts 134°
2026-05-04 05:49 48.73096 2.35859 296 ft 6 kts 133°
2026-05-04 05:51 48.73109 2.35779 292 ft 0 kts 54°
2026-05-04 05:51 48.73116 2.35795 291 ft 8 kts 55°
2026-05-04 05:52 48.73162 2.35900 294 ft 16 kts 57°
2026-05-04 05:52 48.73203 2.35996 295 ft 15 kts 56°
2026-05-04 05:52 48.73265 2.36104 293 ft 13 kts 18°
2026-05-04 05:52 48.73352 2.36073 291 ft 13 kts
2026-05-04 05:53 48.73465 2.36091 293 ft 12 kts 343°
2026-05-04 05:54 48.71879 2.31265 1005 ft 204 kts 243°
2026-05-04 05:55 48.70956 2.29806 2154 ft 190 kts 201°
2026-05-04 05:55 48.69718 2.29380 3246 ft 178 kts 201°
2026-05-04 05:55 48.68588 2.28535 3873 ft 188 kts 198°
2026-05-04 05:55 48.67219 2.28597 4096 ft 214 kts 157°
2026-05-04 05:56 48.65794 2.29607 4374 ft 239 kts 157°
2026-05-04 05:56 48.64182 2.30601 4783 ft 258 kts 160°
2026-05-04 05:56 48.62463 2.31510 5474 ft 264 kts 162°
2026-05-04 05:56 48.60700 2.32339 6280 ft 267 kts 164°
2026-05-04 05:57 48.58905 2.33112 7023 ft 270 kts 165°
2026-05-04 05:57 48.57078 2.33848 7748 ft 274 kts 166°
2026-05-04 05:57 48.55221 2.34563 8482 ft 277 kts 166°
2026-05-04 05:57 48.53337 2.35274 9222 ft 281 kts 166°
2026-05-04 05:58 48.51429 2.35989 9828 ft 285 kts 166°
2026-05-04 05:58 48.49524 2.36805 9918 ft 284 kts 156°
2026-05-04 05:58 48.47875 2.38429 10062 ft 286 kts 141°
2026-05-04 05:58 48.46276 2.40407 10226 ft 309 kts 141°
2026-05-04 05:59 48.44564 2.42543 10413 ft 330 kts 141°
2026-05-04 05:59 48.42780 2.44756 10842 ft 341 kts 141°
2026-05-04 05:59 48.40934 2.47029 11494 ft 345 kts 141°
2026-05-04 05:59 48.39066 2.49315 12206 ft 347 kts 142°
2026-05-04 06:00 48.37182 2.51612 12905 ft 350 kts 142°
2026-05-04 06:00 48.35280 2.53924 13578 ft 354 kts 142°
2026-05-04 06:00 48.33356 2.56259 14194 ft 357 kts 142°
2026-05-04 06:00 48.31416 2.58609 14805 ft 359 kts 142°
2026-05-04 06:01 48.29466 2.60968 15432 ft 362 kts 142°
2026-05-04 06:01 48.27426 2.63201 16037 ft 363 kts 150°
2026-05-04 06:03 48.11326 2.75484 20074 ft 377 kts 155°
2026-05-04 06:03 48.08985 2.77273 20584 ft 379 kts 156°
2026-05-04 06:05 47.91766 2.88323 23881 ft 392 kts 160°
2026-05-04 06:05 47.86722 2.91514 24688 ft 395 kts 160°
2026-05-04 06:05 47.84187 2.93119 25059 ft 397 kts 160°
2026-05-04 06:06 47.81642 2.94728 25432 ft 398 kts 160°
2026-05-04 06:06 47.79086 2.96342 25797 ft 400 kts 160°
2026-05-04 06:06 47.76520 2.97961 26158 ft 402 kts 160°
2026-05-04 06:06 47.73942 2.99587 26512 ft 403 kts 160°
2026-05-04 06:07 47.71352 3.01217 26851 ft 405 kts 160°
2026-05-04 06:07 47.68755 3.02850 27192 ft 407 kts 160°
2026-05-04 06:07 47.66140 3.04493 27519 ft 409 kts 160°
2026-05-04 06:07 47.63521 3.06136 27837 ft 410 kts 160°
2026-05-04 06:08 47.60884 3.07790 28153 ft 412 kts 160°
2026-05-04 06:08 47.58237 3.09448 28441 ft 414 kts 160°
2026-05-04 06:08 47.55577 3.11112 28721 ft 416 kts 160°
2026-05-04 06:08 47.52905 3.12780 29014 ft 418 kts 160°
2026-05-04 06:09 47.50214 3.14456 29297 ft 420 kts 160°
2026-05-04 06:09 47.47516 3.16134 29569 ft 422 kts 160°
2026-05-04 06:11 47.28509 3.27916 31615 ft 422 kts 161°
2026-05-04 06:11 47.25809 3.29583 31924 ft 421 kts 161°
2026-05-04 06:13 47.07018 3.41129 33916 ft 416 kts 162°
2026-05-04 06:14 46.90976 3.50916 35035 ft 417 kts 162°
2026-05-04 06:14 46.88290 3.52549 35206 ft 418 kts 162°
2026-05-04 06:15 46.85603 3.54180 35380 ft 418 kts 162°
2026-05-04 06:15 46.82916 3.55811 35548 ft 419 kts 162°
2026-05-04 06:15 46.80225 3.57442 35704 ft 419 kts 162°
2026-05-04 06:15 46.77533 3.59071 35843 ft 419 kts 162°
2026-05-04 06:16 46.74846 3.60732 35982 ft 422 kts 157°
2026-05-04 06:16 46.72415 3.63211 36061 ft 434 kts 140°
2026-05-04 06:16 46.70501 3.66659 36206 ft 443 kts 126°
2026-05-04 06:16 46.69255 3.70818 36303 ft 455 kts 110°
2026-05-04 06:17 46.68487 3.75297 36441 ft 457 kts 108°
2026-05-04 06:17 46.67786 3.79829 36561 ft 459 kts 107°
2026-05-04 06:17 46.67075 3.84348 36711 ft 458 kts 108°
2026-05-04 06:17 46.66323 3.88849 36878 ft 457 kts 109°
2026-05-04 06:18 46.64765 3.97831 36981 ft 460 kts 109°
2026-05-04 06:20 46.58500 4.33747 36988 ft 456 kts 109°
2026-05-04 06:21 46.54554 4.56021 36996 ft 455 kts 109°
2026-05-04 06:22 46.52963 4.64919 37003 ft 455 kts 109°
2026-05-04 06:25 46.41521 5.27580 37013 ft 463 kts 109°
2026-05-04 06:26 46.39833 5.36578 37016 ft 462 kts 111°
2026-05-04 06:26 46.37156 5.44863 37027 ft 450 kts 129°
2026-05-04 06:27 46.27153 5.61861 37024 ft 443 kts 136°
2026-05-04 06:28 46.23128 5.68618 37026 ft 443 kts 135°
2026-05-04 06:28 46.19115 5.75375 37031 ft 443 kts 135°
2026-05-04 06:29 46.15094 5.82136 37017 ft 444 kts 135°
2026-05-04 06:29 46.11084 5.88856 37036 ft 446 kts 135°
2026-05-04 06:30 46.07026 5.95641 37021 ft 448 kts 135°
2026-05-04 06:30 46.02945 6.02447 37014 ft 450 kts 135°
2026-05-04 06:31 45.98856 6.09251 37011 ft 449 kts 135°
2026-05-04 06:31 45.94769 6.16035 37024 ft 448 kts 135°
2026-05-04 06:33 45.77900 6.42275 37027 ft 441 kts 149°
2026-05-04 06:34 45.72867 6.47305 37010 ft 441 kts 150°
2026-05-04 06:34 45.67824 6.52328 36989 ft 444 kts 149°
2026-05-04 06:36 45.47836 6.72518 37063 ft 439 kts 149°
2026-05-04 06:37 45.42848 6.77534 37034 ft 437 kts 149°
2026-05-04 06:37 45.37880 6.82518 37076 ft 440 kts 149°
2026-05-04 06:38 45.32851 6.87552 37077 ft 444 kts 149°
2026-05-04 06:40 45.14873 7.09931 37133 ft 446 kts 140°
2026-05-04 06:40 45.10473 7.16101 37137 ft 446 kts 134°
2026-05-04 06:41 45.06822 7.23225 37161 ft 449 kts 128°
2026-05-04 06:41 45.03299 7.30525 37164 ft 450 kts 128°
2026-05-04 06:42 44.99689 7.37816 37162 ft 455 kts 128°
2026-05-04 06:44 44.82084 7.63312 37077 ft 447 kts 139°
2026-05-04 06:44 44.77663 7.69451 37092 ft 446 kts 139°
2026-05-04 06:45 44.73246 7.75578 37095 ft 446 kts 139°
2026-05-04 06:45 44.68824 7.81699 37099 ft 446 kts 139°
2026-05-04 06:46 44.64393 7.87817 37097 ft 447 kts 139°
2026-05-04 06:46 44.59947 7.93942 37103 ft 449 kts 139°
2026-05-04 06:48 44.41968 8.18570 37095 ft 454 kts 139°
2026-05-04 06:50 44.23835 8.43185 37117 ft 454 kts 139°
2026-05-04 06:51 44.19302 8.49304 37114 ft 453 kts 139°
2026-05-04 06:51 44.14770 8.55406 37117 ft 453 kts 139°
2026-05-04 06:52 44.10242 8.61491 37114 ft 452 kts 139°
2026-05-04 06:52 44.05710 8.67566 37118 ft 452 kts 139°
2026-05-04 06:53 44.01177 8.73630 37109 ft 452 kts 139°
2026-05-04 06:53 43.96670 8.79644 37108 ft 452 kts 139°
2026-05-04 06:54 43.92131 8.85689 37110 ft 453 kts 139°
2026-05-04 06:54 43.87580 8.91737 37108 ft 453 kts 139°
2026-05-04 06:55 43.83024 8.97777 37108 ft 454 kts 139°
2026-05-04 06:55 43.78459 9.03815 37106 ft 454 kts 140°
2026-05-04 06:57 43.60124 9.27934 37102 ft 456 kts 140°
2026-05-04 06:58 43.55531 9.33945 37103 ft 456 kts 140°
2026-05-04 06:58 43.50924 9.39958 37099 ft 456 kts 140°
2026-05-04 06:59 43.46317 9.45958 37100 ft 456 kts 140°
2026-05-04 06:59 43.41711 9.51944 37105 ft 456 kts 140°
2026-05-04 07:01 43.23242 9.75815 37119 ft 456 kts 140°
2026-05-04 07:02 43.18644 9.81727 37114 ft 457 kts 140°
2026-05-04 07:02 43.14002 9.87680 37120 ft 457 kts 140°
2026-05-04 07:03 43.09358 9.93623 37119 ft 457 kts 140°
2026-05-04 07:03 43.04705 9.99566 37123 ft 458 kts 140°
2026-05-04 07:04 43.00048 10.05501 37127 ft 458 kts 140°
2026-05-04 07:04 42.95380 10.11438 37126 ft 459 kts 140°
2026-05-04 07:05 42.90707 10.17367 37130 ft 459 kts 140°
2026-05-04 07:05 42.86027 10.23292 37133 ft 459 kts 141°
2026-05-04 07:06 42.78997 10.32172 37137 ft 460 kts 141°
2026-05-04 07:07 42.74300 10.38089 37141 ft 460 kts 141°
2026-05-04 07:09 42.57224 10.64293 37144 ft 464 kts 134°
2026-05-04 07:09 42.53000 10.70842 37145 ft 464 kts 134°
2026-05-04 07:10 42.48741 10.77416 37150 ft 465 kts 134°
2026-05-04 07:12 42.31617 11.03714 37150 ft 466 kts 134°
2026-05-04 07:12 42.27317 11.10282 37149 ft 467 kts 134°
2026-05-04 07:13 42.23012 11.16843 37153 ft 467 kts 134°
2026-05-04 07:13 42.18705 11.23393 37153 ft 467 kts 134°
2026-05-04 07:14 42.07910 11.39744 37156 ft 467 kts 134°
2026-05-04 07:15 42.03588 11.46266 37155 ft 467 kts 134°
2026-05-04 07:15 41.99267 11.52772 37155 ft 467 kts 134°
2026-05-04 07:16 41.94935 11.59278 37157 ft 467 kts 135°
2026-05-04 07:16 41.90606 11.65767 37155 ft 467 kts 135°
2026-05-04 07:17 41.86299 11.72209 37171 ft 467 kts 135°
2026-05-04 07:17 41.81960 11.78684 37181 ft 467 kts 135°
2026-05-04 07:18 41.77616 11.85152 37189 ft 467 kts 135°
2026-05-04 07:18 41.73264 11.91619 37170 ft 468 kts 135°
2026-05-04 07:19 41.68903 11.98085 37179 ft 468 kts 135°
2026-05-04 07:19 41.64538 12.04542 37174 ft 468 kts 135°
2026-05-04 07:20 41.60161 12.11003 37177 ft 469 kts 135°
2026-05-04 07:20 41.55776 12.17461 37179 ft 469 kts 135°
2026-05-04 07:22 41.38178 12.43241 37179 ft 470 kts 135°
2026-05-04 07:23 41.33768 12.49665 37180 ft 470 kts 135°
2026-05-04 07:23 41.29350 12.56089 37177 ft 470 kts 135°
2026-05-04 07:24 41.24932 12.62497 37177 ft 470 kts 135°
2026-05-04 07:24 41.20516 12.68890 37178 ft 469 kts 135°
2026-05-04 07:26 41.02880 12.94283 37183 ft 468 kts 135°
2026-05-04 07:27 40.98460 13.00613 37196 ft 468 kts 135°
2026-05-04 07:27 40.94037 13.06934 37195 ft 468 kts 135°
2026-05-04 07:28 40.89609 13.13249 37195 ft 468 kts 135°
2026-05-04 07:28 40.85179 13.19554 37185 ft 468 kts 135°
2026-05-04 07:29 40.80742 13.25855 37192 ft 469 kts 135°
2026-05-04 07:29 40.77052 13.31085 37194 ft 469 kts 135°
2026-05-04 07:30 40.72602 13.37380 37192 ft 469 kts 135°
2026-05-04 07:30 40.68148 13.43666 37194 ft 470 kts 135°
2026-05-04 07:31 40.63684 13.49956 37192 ft 470 kts 135°
2026-05-04 07:33 40.45767 13.75062 37195 ft 471 kts 135°
2026-05-04 07:33 40.41277 13.81322 37196 ft 471 kts 135°
2026-05-04 07:34 40.36783 13.87573 37199 ft 471 kts 135°
2026-05-04 07:34 40.32283 13.93820 37199 ft 471 kts 135°
2026-05-04 07:35 40.27779 14.00059 37199 ft 471 kts 135°
2026-05-04 07:35 40.23275 14.06286 37201 ft 471 kts 135°
2026-05-04 07:36 40.18768 14.12505 37201 ft 471 kts 135°
2026-05-04 07:38 40.00699 14.37304 37195 ft 471 kts 135°
2026-05-04 07:38 39.96170 14.43487 37198 ft 472 kts 135°
2026-05-04 07:39 39.91666 14.49626 37213 ft 472 kts 135°
2026-05-04 07:39 39.87122 14.55805 37192 ft 472 kts 135°
2026-05-04 07:40 39.82576 14.61974 37194 ft 473 kts 135°
2026-05-04 07:40 39.78015 14.68151 37208 ft 473 kts 135°
2026-05-04 07:41 39.73452 14.74319 37203 ft 474 kts 135°
2026-05-04 07:41 39.68883 14.80481 37206 ft 474 kts 135°
2026-05-04 07:42 39.64298 14.86653 37208 ft 475 kts 135°
2026-05-04 07:42 39.59711 14.92815 37196 ft 475 kts 135°
2026-05-04 07:43 39.55114 14.98978 37204 ft 476 kts 135°
2026-05-04 07:43 39.50510 15.05138 37205 ft 476 kts 135°
2026-05-04 07:44 39.45897 15.11297 37190 ft 477 kts 135°
2026-05-04 07:44 39.41279 15.17449 37203 ft 477 kts 135°
2026-05-04 07:45 39.36654 15.23601 37208 ft 477 kts 135°
2026-05-04 07:45 39.32023 15.29746 37208 ft 477 kts 135°
2026-05-04 07:46 39.27388 15.35885 37208 ft 478 kts 135°
2026-05-04 07:46 39.22746 15.42020 37210 ft 478 kts 135°
2026-05-04 07:47 39.18101 15.48147 37210 ft 478 kts 135°
2026-05-04 07:49 38.99475 15.72593 37202 ft 478 kts 135°
2026-05-04 07:49 38.94807 15.78689 37213 ft 478 kts 135°
2026-05-04 07:50 38.90171 15.84731 37211 ft 478 kts 136°
2026-05-04 07:50 38.85494 15.90815 37209 ft 479 kts 136°
2026-05-04 07:51 38.80816 15.96888 37214 ft 479 kts 136°
2026-05-04 07:51 38.76133 16.02955 37210 ft 479 kts 136°
2026-05-04 07:52 38.71445 16.09016 37209 ft 479 kts 136°
2026-05-04 07:52 38.66749 16.15076 37204 ft 480 kts 136°
2026-05-04 07:54 38.47867 16.39323 37196 ft 481 kts 136°
2026-05-04 07:55 38.43135 16.45368 37189 ft 481 kts 136°
2026-05-04 07:55 38.38400 16.51405 37192 ft 481 kts 136°
2026-05-04 07:56 38.33663 16.57436 37177 ft 481 kts 136°
2026-05-04 07:56 38.28927 16.63452 37189 ft 481 kts 136°
2026-05-04 07:57 38.24183 16.69466 37189 ft 481 kts 136°
2026-05-04 07:57 38.19444 16.75462 37181 ft 481 kts 136°
2026-05-04 07:58 38.14696 16.81459 37190 ft 481 kts 136°
2026-05-04 07:58 38.09945 16.87446 37193 ft 481 kts 136°
2026-05-04 07:59 38.05219 16.93392 37186 ft 482 kts 136°
2026-05-04 07:59 38.00453 16.99375 37196 ft 482 kts 136°
2026-05-04 08:00 37.95681 17.05355 37199 ft 483 kts 136°
2026-05-04 08:02 37.76482 17.29298 37191 ft 486 kts 136°
2026-05-04 08:02 37.71651 17.35294 37203 ft 487 kts 136°
2026-05-04 08:03 37.66813 17.41287 37201 ft 488 kts 136°
2026-05-04 08:03 37.61965 17.47280 37204 ft 488 kts 136°
2026-05-04 08:04 37.57113 17.53266 37195 ft 488 kts 136°
2026-05-04 08:04 37.52256 17.59248 37190 ft 488 kts 136°
2026-05-04 08:05 37.47395 17.65223 37194 ft 488 kts 136°
2026-05-04 08:05 37.42531 17.71190 37201 ft 488 kts 136°
2026-05-04 08:06 37.37696 17.77111 37196 ft 488 kts 136°
2026-05-04 08:06 37.32826 17.83062 37203 ft 488 kts 136°
2026-05-04 08:08 37.13329 18.06776 37207 ft 488 kts 137°
2026-05-04 08:11 36.91309 18.33346 37203 ft 489 kts 137°
2026-05-04 08:11 36.83941 18.42187 37203 ft 490 kts 137°
2026-05-04 08:12 36.79019 18.48079 37206 ft 490 kts 137°
2026-05-04 08:12 36.74089 18.53969 37212 ft 491 kts 137°
2026-05-04 08:13 36.69154 18.59855 37209 ft 491 kts 137°
2026-05-04 08:13 36.64212 18.65738 37213 ft 492 kts 137°
2026-05-04 08:14 36.59263 18.71619 37211 ft 492 kts 137°
2026-05-04 08:16 36.42433 18.98089 37214 ft 493 kts 120°
2026-05-04 08:16 36.38937 19.05419 37202 ft 494 kts 120°
2026-05-04 08:17 36.35977 19.11531 37212 ft 494 kts 120°
2026-05-04 08:17 36.32445 19.18775 37218 ft 494 kts 121°
2026-05-04 08:19 36.18139 19.47965 37212 ft 496 kts 121°
2026-05-04 08:20 36.14543 19.55265 37206 ft 497 kts 121°
2026-05-04 08:20 36.10940 19.62564 37215 ft 497 kts 121°
2026-05-04 08:21 36.07331 19.69861 37205 ft 498 kts 121°
2026-05-04 08:21 36.03714 19.77157 37207 ft 498 kts 121°
2026-05-04 08:22 36.00091 19.84449 37208 ft 498 kts 121°
2026-05-04 08:24 35.85530 20.13604 37213 ft 499 kts 121°
2026-05-04 08:24 35.81874 20.20885 37216 ft 500 kts 121°
2026-05-04 08:25 35.78213 20.28162 37215 ft 500 kts 121°
2026-05-04 08:25 35.74546 20.35434 37216 ft 500 kts 121°
2026-05-04 08:27 35.59822 20.64487 37216 ft 501 kts 121°
2026-05-04 08:28 35.56138 20.71747 37210 ft 501 kts 120°
2026-05-04 08:28 35.52944 20.79333 37224 ft 500 kts 114°
2026-05-04 08:29 35.49967 20.87058 37217 ft 501 kts 114°
2026-05-04 08:31 35.37743 21.17842 37217 ft 503 kts 115°
2026-05-04 08:33 35.25343 21.48552 37221 ft 504 kts 115°
2026-05-04 08:35 35.12822 21.79277 37215 ft 505 kts 115°
2026-05-04 08:35 35.09681 21.86940 37217 ft 505 kts 115°
2026-05-04 08:37 34.98639 22.13741 37215 ft 505 kts 115°
2026-05-04 08:38 34.95471 22.21391 37220 ft 505 kts 115°
2026-05-04 08:38 34.92319 22.28984 37217 ft 506 kts 115°
2026-05-04 08:40 34.79559 22.59551 37225 ft 507 kts 116°
2026-05-04 08:41 34.76351 22.67194 37219 ft 508 kts 116°
2026-05-04 08:41 34.73133 22.74842 37210 ft 508 kts 116°
2026-05-04 08:42 34.69907 22.82492 37217 ft 509 kts 116°
2026-05-04 08:42 34.66673 22.90146 37214 ft 509 kts 116°
2026-05-04 08:43 34.63431 22.97802 37210 ft 510 kts 116°
2026-05-04 08:43 34.60185 23.05462 37211 ft 511 kts 116°
2026-05-04 08:44 34.56939 23.13134 37209 ft 511 kts 116°
2026-05-04 08:46 34.43887 23.43813 37200 ft 513 kts 116°
2026-05-04 08:46 34.40607 23.51480 37203 ft 513 kts 116°
2026-05-04 08:47 34.37321 23.59142 37196 ft 513 kts 116°
2026-05-04 08:47 34.34031 23.66796 37195 ft 513 kts 117°
2026-05-04 08:48 34.30737 23.74442 37196 ft 512 kts 117°
2026-05-04 08:48 34.27437 23.82085 37192 ft 512 kts 117°
2026-05-04 08:49 34.24136 23.89716 37193 ft 512 kts 117°
2026-05-04 08:50 34.12565 24.16326 37191 ft 512 kts 117°
2026-05-04 08:51 34.09241 24.23934 37186 ft 512 kts 117°
2026-05-04 08:51 34.05912 24.31536 37185 ft 512 kts 117°
2026-05-04 08:52 34.02580 24.39132 37186 ft 513 kts 117°
2026-05-04 08:52 33.98709 24.46318 37186 ft 511 kts 133°
2026-05-04 08:54 33.77662 24.68976 37183 ft 509 kts 142°
2026-05-04 08:55 33.72380 24.74634 37179 ft 509 kts 142°
2026-05-04 08:55 33.67090 24.80292 37180 ft 509 kts 142°
2026-05-04 09:01 33.11600 25.38987 37172 ft 504 kts 143°
2026-05-04 09:01 33.06338 25.44499 37179 ft 503 kts 143°
2026-05-04 09:02 33.01077 25.50001 37178 ft 503 kts 143°
2026-05-04 09:02 32.95815 25.55494 37177 ft 503 kts 143°
2026-05-04 09:03 32.90549 25.60983 37182 ft 503 kts 143°
2026-05-04 09:03 32.86141 25.65571 37173 ft 503 kts 143°
2026-05-04 09:04 32.80872 25.71047 37179 ft 503 kts 143°
2026-05-04 09:04 32.75635 25.76479 37183 ft 503 kts 143°
2026-05-04 09:05 32.70363 25.81941 37178 ft 503 kts 143°
2026-05-04 09:05 32.65087 25.87397 37170 ft 503 kts 144°
2026-05-04 09:06 32.59812 25.92844 37169 ft 503 kts 144°
2026-05-04 09:08 32.38719 26.14533 37176 ft 501 kts 144°
2026-05-04 09:08 32.33455 26.19925 37178 ft 500 kts 144°
2026-05-04 09:09 32.28189 26.25309 37177 ft 500 kts 144°
2026-05-04 09:09 32.22932 26.30676 37174 ft 499 kts 144°
2026-05-04 09:10 32.17677 26.36033 37178 ft 499 kts 145°
2026-05-04 09:10 32.12415 26.41387 37178 ft 499 kts 145°
2026-05-04 09:11 32.07158 26.46729 37178 ft 499 kts 145°
2026-05-04 09:11 32.01903 26.52060 37180 ft 499 kts 145°
2026-05-04 09:12 31.96643 26.57388 37178 ft 498 kts 145°
2026-05-04 09:14 31.75636 26.78583 37180 ft 498 kts 146°
2026-05-04 09:14 31.70370 26.83875 37179 ft 498 kts 146°
2026-05-04 09:15 31.65111 26.89153 37178 ft 498 kts 146°
2026-05-04 09:15 31.59846 26.94428 37180 ft 497 kts 146°
2026-05-04 09:17 31.36185 27.18039 37210 ft 496 kts 146°
2026-05-04 09:18 31.30764 27.22926 37198 ft 484 kts 158°
2026-05-04 09:18 31.24780 27.26272 37206 ft 475 kts 165°
2026-05-04 09:19 31.18745 27.29439 37201 ft 476 kts 164°
2026-05-04 09:19 31.12721 27.32672 37194 ft 477 kts 164°
2026-05-04 09:20 31.06703 27.35940 37185 ft 478 kts 164°
2026-05-04 09:20 31.00673 27.39212 37182 ft 478 kts 164°
2026-05-04 09:21 30.94645 27.42491 37174 ft 480 kts 161°
2026-05-04 09:21 30.91740 27.44486 37160 ft 491 kts 151°
2026-05-04 09:21 30.89022 27.46925 37191 ft 494 kts 148°
2026-05-04 09:22 30.83683 27.51988 37178 ft 495 kts 148°
2026-05-04 09:22 30.78348 27.57044 37173 ft 494 kts 148°
2026-05-04 09:23 30.72987 27.62041 37174 ft 493 kts 149°
2026-05-04 09:23 30.67619 27.67000 37173 ft 492 kts 149°
2026-05-04 09:25 30.46237 27.86681 37164 ft 488 kts 149°
2026-05-04 09:26 30.40921 27.91558 37171 ft 487 kts 149°
2026-05-04 09:26 30.35613 27.96422 37163 ft 486 kts 149°
2026-05-04 09:27 30.30318 28.01267 37161 ft 485 kts 149°
2026-05-04 09:27 30.25029 28.06098 37159 ft 484 kts 149°
2026-05-04 09:28 30.19751 28.10913 37160 ft 483 kts 150°
2026-05-04 09:28 30.14512 28.15686 37160 ft 483 kts 150°
2026-05-04 09:29 30.09233 28.20489 37163 ft 483 kts 150°
2026-05-04 09:29 30.03958 28.25281 37160 ft 483 kts 150°
2026-05-04 09:30 29.98643 28.30104 37164 ft 483 kts 150°
2026-05-04 09:30 29.93394 28.34862 37163 ft 483 kts 150°
2026-05-04 09:31 29.88111 28.39650 37165 ft 484 kts 149°
2026-05-04 09:31 29.83425 28.45392 37181 ft 499 kts 134°
2026-05-04 09:32 29.79262 28.51795 37166 ft 500 kts 133°
2026-05-04 09:34 29.62372 28.77110 37157 ft 498 kts 135°
2026-05-04 09:34 29.58140 28.83397 37147 ft 497 kts 135°
2026-05-04 09:35 29.53906 28.89681 37150 ft 497 kts 135°
2026-05-04 09:35 29.49676 28.95951 37143 ft 497 kts 135°
2026-05-04 09:37 29.33137 29.15189 37149 ft 476 kts 153°
2026-05-04 09:37 29.30472 29.17436 37155 ft 477 kts 153°
2026-05-04 09:38 29.25149 29.21992 37145 ft 478 kts 152°
2026-05-04 09:38 29.19833 29.26586 37152 ft 479 kts 152°
2026-05-04 09:39 29.14503 29.31187 37148 ft 480 kts 152°
2026-05-04 09:39 29.09150 29.35752 37146 ft 480 kts 153°
2026-05-04 09:40 29.03752 29.40231 37145 ft 480 kts 153°
2026-05-04 09:40 28.98341 29.44701 37142 ft 480 kts 153°
2026-05-04 09:42 28.76761 29.62573 37153 ft 478 kts 153°
2026-05-04 09:43 28.71381 29.67016 37157 ft 477 kts 153°
2026-05-04 09:43 28.66012 29.71445 37154 ft 476 kts 153°
2026-05-04 09:44 28.60682 29.75835 37155 ft 475 kts 154°
2026-05-04 09:46 28.39299 29.93392 37158 ft 473 kts 154°
2026-05-04 09:46 28.33956 29.97765 37166 ft 473 kts 154°
2026-05-04 09:47 28.28620 30.02127 37166 ft 473 kts 154°
2026-05-04 09:49 28.08133 30.18822 37173 ft 474 kts 154°
2026-05-04 09:51 27.89359 30.34053 37178 ft 475 kts 154°
2026-05-04 09:51 27.83984 30.38400 37181 ft 475 kts 154°
2026-05-04 09:52 27.78605 30.42746 37178 ft 476 kts 154°
2026-05-04 09:52 27.73222 30.47091 37181 ft 476 kts 154°
2026-05-04 09:53 27.67834 30.51434 37178 ft 476 kts 154°
2026-05-04 09:53 27.62446 30.55771 37177 ft 476 kts 154°
2026-05-04 09:54 27.57062 30.60100 37181 ft 475 kts 154°
2026-05-04 09:54 27.51711 30.64397 37175 ft 475 kts 154°
2026-05-04 09:55 27.46329 30.68713 37194 ft 475 kts 154°
2026-05-04 09:55 27.40945 30.73026 37191 ft 475 kts 154°
2026-05-04 09:56 27.35567 30.77329 37181 ft 475 kts 154°
2026-05-04 09:56 27.30195 30.81623 37180 ft 472 kts 154°
2026-05-04 09:57 27.24883 30.85868 37189 ft 467 kts 155°
2026-05-04 09:57 27.19586 30.90087 36800 ft 466 kts 154°
2026-05-04 09:57 27.16964 30.92179 36463 ft 460 kts 154°
2026-05-04 09:58 27.14366 30.94249 36090 ft 456 kts 154°
2026-05-04 09:58 27.11791 30.96298 35718 ft 452 kts 154°
2026-05-04 09:58 27.09233 30.98331 35336 ft 449 kts 154°
2026-05-04 10:00 26.94041 31.15616 32851 ft 442 kts 135°
2026-05-04 10:00 26.92125 31.18296 32472 ft 439 kts 136°
2026-05-04 10:02 26.78933 31.36459 29855 ft 423 kts 135°
2026-05-04 10:04 26.66203 31.53881 27191 ft 404 kts 135°
2026-05-04 10:04 26.64429 31.56302 26819 ft 401 kts 135°
2026-05-04 10:04 26.62664 31.58710 26458 ft 399 kts 135°
2026-05-04 10:04 26.60910 31.61102 26098 ft 397 kts 135°
2026-05-04 10:05 26.59160 31.63488 25741 ft 396 kts 135°
2026-05-04 10:05 26.57420 31.65858 25388 ft 394 kts 135°
2026-05-04 10:05 26.55684 31.68222 25023 ft 393 kts 135°
2026-05-04 10:05 26.53955 31.70575 24667 ft 392 kts 135°
2026-05-04 10:06 26.52228 31.72923 24309 ft 391 kts 135°
2026-05-04 10:06 26.50502 31.75270 23949 ft 390 kts 135°
2026-05-04 10:06 26.48782 31.77607 23581 ft 389 kts 135°
2026-05-04 10:08 26.38608 31.91413 21372 ft 378 kts 135°
2026-05-04 10:08 26.36941 31.93671 21025 ft 376 kts 135°
2026-05-04 10:08 26.35283 31.95914 20679 ft 374 kts 135°
2026-05-04 10:08 26.33632 31.98147 20329 ft 373 kts 135°
2026-05-04 10:09 26.31986 32.00373 19989 ft 371 kts 135°
2026-05-04 10:09 26.30347 32.02588 19644 ft 370 kts 135°
2026-05-04 10:09 26.28713 32.04795 19284 ft 369 kts 135°
2026-05-04 10:09 26.27079 32.07001 18939 ft 368 kts 135°
2026-05-04 10:10 26.25450 32.09198 18588 ft 368 kts 135°
2026-05-04 10:10 26.23821 32.11395 18212 ft 367 kts 135°
2026-05-04 10:10 26.22198 32.13582 17834 ft 366 kts 135°
2026-05-04 10:10 26.20604 32.15731 17494 ft 363 kts 135°
2026-05-04 10:11 26.18978 32.17923 17143 ft 362 kts 135°
2026-05-04 10:11 26.17400 32.20047 16798 ft 360 kts 135°
2026-05-04 10:11 26.15809 32.22188 16464 ft 358 kts 135°
2026-05-04 10:11 26.14205 32.24346 16124 ft 356 kts 135°
2026-05-04 10:12 26.12632 32.26462 15790 ft 354 kts 135°
2026-05-04 10:12 26.10940 32.28298 15634 ft 332 kts 152°
2026-05-04 10:12 26.09005 32.29554 15312 ft 316 kts 160°
2026-05-04 10:12 26.07048 32.30656 14796 ft 315 kts 161°
2026-05-04 10:13 26.05089 32.31733 14331 ft 313 kts 161°
2026-05-04 10:13 26.03144 32.32803 13896 ft 310 kts 161°
2026-05-04 10:13 26.01223 32.33866 13421 ft 307 kts 161°
2026-05-04 10:13 25.99318 32.34927 12943 ft 305 kts 161°
2026-05-04 10:14 25.97437 32.35979 12514 ft 301 kts 161°
2026-05-04 10:14 25.95583 32.37018 12078 ft 297 kts 161°
2026-05-04 10:16 25.82951 32.44107 8956 ft 285 kts 161°
2026-05-04 10:16 25.81187 32.45097 8492 ft 284 kts 160°
2026-05-04 10:16 25.79428 32.46083 8056 ft 282 kts 159°
2026-05-04 10:16 25.77679 32.47064 7623 ft 281 kts 159°
2026-05-04 10:17 25.75942 32.48038 7212 ft 280 kts 159°
2026-05-04 10:17 25.74217 32.49006 6743 ft 277 kts 158°
2026-05-04 10:19 25.62560 32.55535 4355 ft 252 kts 155°
2026-05-04 10:19 25.60968 32.56428 4267 ft 256 kts 155°
2026-05-04 10:19 25.59381 32.57307 4115 ft 258 kts 157°
2026-05-04 10:19 25.57777 32.58160 3955 ft 254 kts 154°
2026-05-04 10:20 25.56235 32.59039 3853 ft 245 kts 153°
2026-05-04 10:20 25.54724 32.59899 3696 ft 244 kts 153°
2026-05-04 10:20 25.53254 32.60827 3425 ft 242 kts 138°
2026-05-04 10:20 25.52444 32.62362 3226 ft 228 kts 96°
2026-05-04 10:21 25.52726 32.63975 2956 ft 208 kts 51°
2026-05-04 10:21 25.53822 32.64820 2795 ft 184 kts 12°
2026-05-04 10:21 25.55049 32.65204 2550 ft 184 kts 15°
2026-05-04 10:21 25.56239 32.65641 2306 ft 178 kts 15°
2026-05-04 10:22 25.58450 32.66624 1903 ft 170 kts 18°
2026-05-04 10:22 25.59536 32.67129 1669 ft 165 kts 17°
2026-05-04 10:22 25.60550 32.67600 1476 ft 152 kts 18°
2026-05-04 10:23 25.61509 32.68058 1274 ft 149 kts 20°
2026-05-04 10:23 25.62462 32.68492 1118 ft 151 kts 19°
2026-05-04 10:25 25.67422 32.70659 291 ft 16 kts 269°
2026-05-04 10:25 25.67347 32.70581 293 ft 15 kts 202°
2026-05-04 10:25 25.67233 32.70533 294 ft 24 kts 205°
2026-05-04 10:25 25.67059 32.70447 292 ft 27 kts 203°
2026-05-04 10:26 25.67019 32.70327 295 ft 17 kts 315°
2026-05-04 10:26 25.67119 32.70314 297 ft 17 kts 24°
2026-05-04 10:26 25.67223 32.70333 295 ft 13 kts 309°
2026-05-04 10:26 25.67230 32.70317 292 ft 0 kts 295°